Location: Hains Lake
(37.8540°N, 99.8578°W)
Time: 15:46:58
(UTC+00:00)

Vanguard 1 - Pass Details

Date: 02 December 2021
Orbit: 652 x 3830 km, 34.2° (Epoch: 22 January)

Event Time Altitude Azimuth Distance (km) Brightness Sun altitude
Rises 04:01:23 0° 199° (SSW) 6,554 14.3 -54.6°
Reaches altitude 10° 04:06:07 10° 190° (S) 5,940 13.9 -55.5°
Enters shadow 04:08:07 14° 185° (S) 5,725 13.8 -55.9°
